Location: Namasale
(1.5000°N, 32.6167°E)
Time: 16:37:18
(UTC+00:00)

Courier 1B - Pass Details

Date: 24 April 2021
Orbit: 962 x 1209 km, 28.3° (Epoch: 18 May)

Event Time Altitude Azimuth Distance (km) Brightness Sun altitude
Rises 13:57:08 0° 324° (NW) 3,627 11.2 27.2°
Reaches altitude 10° 14:00:40 10° 343° (NNW) 2,679 10.3 26.4°
Maximum altitude 14:04:57 18° 25° (NNE) 2,154 9.3 25.3°
Drops below altitude 10° 14:09:16 10° 67° (ENE) 2,721 9.5 24.3°
Sets 14:12:53 0° 85° (E) 3,704 10.0 23.4°
